GW3984 Weather Reports


Display with metric or nautical units.
time (UTC)temp
F
wind
direction
speed
MPH
gust
MPH
rain 1hr
in
rain 24hr
in
rain mn
in
humidity
%
barometer
mb
20260508153032 64 350 0.0 2.0 0.00 0.00 0.00 87 1014.0
20260508153008 64 356 0.0 0.0 0.00 0.00 0.00 87 1013.4
20260508152028 64 309 0.0 1.0 0.00 0.00 0.00 88 1013.5
20260508151518 63 290 0.0 2.0 0.00 0.00 0.00 88 1014.2
20260508151004 63 323 0.0 0.0 0.00 0.00 0.00 89 1013.7
20260508150016 62 350 0.0 2.0 0.00 0.00 0.00 89 1014.3
20260508144515 62 308 0.0 2.0 0.00 0.00 0.00 89 1014.3
20260508143750 62 313 0.0 1.0 0.00 0.00 0.00 90 1013.6
20260508143020 62 308 0.0 2.0 0.00 0.00 0.00 89 1014.3
20260508141655 62 304 0.0 1.0 0.00 0.00 0.00 88 1013.8
20260508141510 61 299 0.0 2.0 0.00 0.00 0.00 88 1014.4
20260508140008 61 345 0.0 2.0 0.00 0.00 0.00 1014.4
20260508135556 62 354 0.0 0.0 0.00 0.00 0.00 87 1013.5
20260508134505 61 213 0.0 2.0 0.00 0.00 0.00 87 1014.1
20260508133347 62 291 0.0 1.0 0.00 0.00 0.00 87 1013.6
20260508133031 61 40 0.0 2.0 0.00 0.00 0.00 86 1014.0
20260508132332 62 218 0.0 0.0 0.00 0.00 0.00 86 1013.4
20260508131523 61 175 0.0 2.0 0.00 0.00 0.00 1014.0
20260508131331 62 194 0.0 0.0 0.00 0.00 0.00 85 1013.4
20260508130336 62 210 0.0 0.0 0.00 0.00 0.00 85 1013.4
20260508130024 61 175 0.0 2.0 0.00 0.00 0.00 1014.1
20260508125308 62 167 0.0 0.0 0.00 0.00 0.00 85 1013.5
20260508124520 61 199 0.0 2.0 0.00 0.00 0.00 1014.4
20260508124324 62 248 0.0 0.0 0.00 0.00 0.00 85 1013.7
20260508123251 62 248 0.0 0.0 0.00 0.00 0.00 85 1013.4
20260508123017 62 245 0.0 0.0 0.00 0.00 0.00 84 1014.1
20260508122241 62 248 0.0 0.0 0.00 0.00 0.00 83 1013.6
20260508121515 61 244 0.0 2.0 0.00 0.00 0.00 1014.5
20260508121252 62 246 0.0 0.0 0.00 0.00 0.00 83 1014.0
20260508120225 62 182 0.0 0.0 0.00 0.00 0.00 83 1013.8
20260508120013 61 182 0.0 0.0 0.00 0.00 0.00 82 1014.4
20260508115239 62 182 0.0 0.0 0.00 0.00 0.00 83 1013.7
20260508114508 61 147 0.0 2.0 0.00 0.00 0.00 82 1014.1
20260508114248 61 134 0.0 1.0 0.00 0.00 0.00 83 1013.4
20260508113215 62 304 0.0 1.0 0.00 0.00 0.00 83 1013.2
20260508113028 61 306 0.0 2.0 0.00 0.00 0.00 83 1014.1
20260508111524 61 303 0.0 2.0 0.00 0.00 0.00 84 1014.5
20260508110023 61 303 0.0 1.0 0.00 0.00 0.00 85 1014.4
20260508105913 61 307 0.0 0.0 0.00 0.00 0.00 86 1013.8
20260508104840 62 307 0.0 0.0 0.00 0.00 0.00 84 1014.1
20260508104523 61 302 0.0 2.0 0.00 0.00 0.00 83 1015.0
20260508103020 61 308 0.0 2.0 0.00 0.00 0.00 83 1014.7
20260508102710 61 309 0.0 0.0 0.00 0.00 0.00 84 1014.0
20260508101639 61 58 0.0 0.0 0.00 0.00 0.00 84 1013.5
20260508101520 61 48 0.0 2.0 0.00 0.00 0.00 84 1014.1
20260508100629 61 41 0.0 0.0 0.00 0.00 0.00 84 1013.7
20260508100014 60 350 0.0 2.0 0.00 0.00 0.00 84 1014.3
20260508095616 61 1 0.0 0.0 0.00 0.00 0.00 86 1013.6
20260508094628 61 337 0.0 0.0 0.00 0.00 0.00 86 1013.3
20260508094511 60 331 0.0 2.0 0.00 0.00 0.00 85 1013.9
20260508093556 61 334 0.0 0.0 0.00 0.00 0.00 87 1013.5
20260508093028 60 121 0.0 3.0 0.00 0.00 0.00 85 1013.5
20260508092550 61 141 0.0 1.0 0.00 0.00 0.00 86 1012.6
20260508091527 61 131 0.0 1.0 0.00 0.00 0.00 85 1014.0
20260508091518 61 131 0.0 0.0 0.00 0.00 0.00 86 1013.4
20260508090447 61 156 0.0 1.0 0.00 0.00 0.00 85 1013.7
20260508090027 60 292 0.0 2.0 0.00 0.00 0.00 85 1014.4
20260508085424 61 111 0.0 1.0 0.00 0.00 0.00 85 1013.7
20260508084521 60 319 0.0 2.0 0.00 0.00 0.00 85 1014.9
20260508084418 61 317 0.0 1.0 0.00 0.00 0.00 86 1014.2
20260508083401 61 27 0.0 1.0 0.00 0.00 0.00 86 1013.9
20260508083019 60 26 0.0 2.0 0.00 0.00 0.00 86 1014.9
20260508082353 61 23 0.0 1.0 0.00 0.00 0.00 86 1013.6
20260508081523 60 321 0.0 1.0 0.00 0.00 0.00 86 1014.7
20260508081323 61 322 0.0 0.0 0.00 0.00 0.00 87 1014.0
20260508080254 60 229 0.0 0.0 0.00 0.00 0.00 88 1013.7
20260508080017 60 227 0.0 0.0 0.00 0.00 0.00 88 1014.4
20260508075316 61 229 0.0 0.0 0.00 0.00 0.00 86 1014.2
20260508074513 61 227 0.0 0.0 0.00 0.00 0.00 81 1015.1
20260508074248 62 229 0.0 0.0 0.00 0.00 0.00 81 1014.5
20260508073029 62 227 0.0 0.0 0.00 0.00 0.00 76 1015.1
20260508072111 63 229 0.0 0.0 0.00 0.00 0.00 76 1014.6
20260508071529 63 227 0.0 0.0 0.00 0.00 0.00 75 1015.4
20260508071118 63 229 0.0 0.0 0.00 0.00 0.00 75 1014.6
20260508070108 63 229 0.0 0.0 0.00 0.00 0.00 76 1014.5
20260508070028 62 227 0.0 0.0 0.00 0.00 0.00 75 1015.1
20260508065033 63 229 0.0 0.0 0.00 0.00 0.00 75 1014.7
20260508064525 63 227 0.0 2.0 0.00 0.00 0.00 74 1015.6
20260508064010 63 229 0.0 0.0 0.00 0.00 0.00 74 1014.8
20260508063006 62 173 0.0 2.0 0.00 0.00 0.00 74 1015.0
20260508062940 63 172 0.0 0.0 0.00 0.00 0.00 75 1014.3
20260508061937 63 170 0.0 0.0 0.00 0.00 0.00 75 1013.6
20260508061507 62 150 0.0 2.0 0.00 0.00 0.00 76 1014.3
20260508060959 63 139 0.0 0.0 0.00 0.00 0.00 76 1013.9
20260508060019 63 228 0.0 2.0 0.00 0.00 0.00 75 1015.5
20260508060006 63 230 0.0 0.0 0.00 0.00 0.00 76 1014.8
20260508054955 63 143 0.0 0.0 0.00 0.00 0.00 76 1014.7
20260508054521 63 157 0.0 2.0 0.00 0.00 0.00 75 1015.5
20260508053922 63 167 0.0 0.0 0.00 0.00 0.00 76 1015.4
20260508053016 63 196 0.0 2.0 0.00 0.00 0.00 75 1015.8
20260508052902 63 217 0.0 1.0 0.00 0.00 0.00 76 1015.2
20260508051921 63 283 0.0 1.0 0.00 0.00 0.00 76 1015.2
20260508051521 63 156 0.0 2.0 0.00 0.00 0.00 75 1015.4
20260508050923 63 162 0.0 1.0 0.00 0.00 0.00 75 1015.0
20260508050012 63 300 0.0 2.0 0.00 0.00 0.00 74 1016.1
20260508045942 63 305 0.0 0.0 0.00 0.00 0.00 74 1015.3
20260508044931 63 24 0.0 1.0 0.00 0.00 0.00 75 1015.6
20260508044506 62 258 0.0 2.0 0.00 0.00 0.00 75 1015.9
20260508043900 62 317 0.0 0.0 0.00 0.00 0.00 77 1015.4
20260508043006 61 161 0.0 0.0 0.00 0.00 0.00 76 1014.6
20260508042915 62 160 0.0 0.0 0.00 0.00 0.00 77 1014.0
20260508041911 62 172 0.0 0.0 0.00 0.00 0.00 77 1013.5
20260508041523 62 144 0.0 0.0 0.00 0.00 0.00 77 1014.1
20260508040902 62 145 0.0 0.0 0.00 0.00 0.00 77 1013.5
20260508040021 62 110 0.0 0.0 0.00 0.00 0.00 76 1014.5
20260508035830 63 107 0.0 0.0 0.00 0.00 0.00 76 1013.9
20260508034841 63 68 0.0 0.0 0.00 0.00 0.00 77 1014.3
20260508034524 62 72 0.0 0.0 0.00 0.00 0.00 77 1015.2
20260508033017 63 9 0.0 0.0 0.00 0.00 0.00 74 1015.7
20260508032724 64 1 0.0 0.0 0.00 0.00 0.00 75 1015.1
20260508031659 64 2 0.0 0.0 0.00 0.00 0.00 75 1015.2
20260508031515 64 9 0.0 0.0 0.00 0.00 0.00 74 1015.8
20260508030656 64 328 0.0 0.0 0.00 0.00 0.00 74 1015.5
20260508030011 64 323 0.0 0.0 0.00 0.00 0.00 75 1016.2
20260508024548 65 338 0.0 0.0 0.00 0.00 0.00 72 1015.4
20260508024510 64 333 0.0 0.0 0.00 0.00 0.00 71 1016.0
20260508023529 65 359 0.0 0.0 0.00 0.00 0.00 72 1015.3
20260508023010 64 46 0.0 0.0 0.00 0.00 0.00 71 1015.9
20260508022526 64 82 0.0 0.0 0.00 0.00 0.00 73 1015.2
20260508021525 63 104 0.0 0.0 0.00 0.00 0.00 72 1015.5
20260508021500 64 101 0.0 0.0 0.00 0.00 0.00 72 1014.8
20260508020504 63 136 0.0 0.0 0.00 0.00 0.00 73 1014.1
20260508020021 63 140 0.0 0.0 0.00 0.00 0.00 73 1014.8
20260508015453 64 137 0.0 0.0 0.00 0.00 0.00 72 1014.0
20260508014522 64 312 0.0 2.0 0.00 0.00 0.00 70 1015.0
20260508013350 64 139 0.0 0.0 0.00 0.00 0.00 71 1013.5
20260508013016 64 163 0.0 2.0 0.00 0.00 0.00 70 1014.3
20260508012352 65 157 0.0 1.0 0.00 0.00 0.00 70 1013.4
20260508011537 64 167 0.0 3.0 0.00 0.00 0.00 69 1014.1
20260508011345 65 167 0.0 1.0 0.00 0.00 0.00 69 1013.4
20260508010358 65 144 0.0 1.0 0.00 0.00 0.00 66 1013.5
20260508010014 65 9 0.0 2.0 0.00 0.00 0.00 65 1014.2
20260508005332 65 293 0.0 9.0 0.00 0.00 0.00 65 1013.2
20260508004511 65 142 1.0 8.0 0.00 0.00 0.00 64 1012.7
20260508004348 65 51 1.0 9.0 0.00 0.00 0.00 64 1011.7
20260508003006 65 130 2.0 7.0 0.00 0.00 0.00 63 1012.6
20260508002255 66 191 0.0 5.0 0.00 0.00 0.00 64 1012.5
20260508001527 66 84 0.0 3.0 0.00 0.00 0.00 64 1013.9
20260508001307 67 137 0.0 0.0 0.00 0.00 0.00 65 1013.2
20260508000304 67 172 0.0 1.0 0.00 0.00 0.00 65 1014.0
20260508000023 67 313 0.0 3.0 0.00 0.00 0.00 64 1014.8
20260507235307 67 155 0.0 3.0 0.00 0.00 0.00 64 1013.9
20260507234523 67 140 2.0 3.0 0.00 0.00 0.00 62 1015.3
20260507234252 68 285 0.0 0.0 0.00 0.00 0.00 63 1014.8
20260507233301 68 174 0.0 2.0 0.00 0.00 0.00 62 1014.4
20260507233025 68 175 0.0 2.0 0.00 0.00 0.00 63 1015.2
20260507232231 70 219 0.0 1.0 0.00 0.00 0.00 60 1015.0
20260507231530 69 360 0.0 2.0 0.00 0.00 0.00 62 1015.7
20260507231204 69 359 0.0 1.0 0.00 0.00 0.00 62 1015.0
20260507230139 69 153 0.0 2.0 0.00 0.00 0.00 63 1015.2
20260507230014 68 148 0.0 4.0 0.00 0.00 0.00 62 1015.9
20260507225118 70 126 0.0 3.0 0.00 0.00 0.00 61 1015.1
20260507224512 71 144 0.0 4.0 0.00 0.00 0.00 61 1015.8
20260507224123 71 91 0.0 3.0 0.00 0.00 0.00 61 1015.2
20260507223012 69 173 1.0 4.0 0.00 0.00 0.00 61 1016.1
20260507221928 72 220 0.0 2.0 0.00 0.00 0.00 61 1015.2
20260507221525 70 290 1.0 3.0 0.00 0.00 0.00 63 1015.8
20260507220917 68 148 0.0 2.0 0.00 0.00 0.00 65 1015.2
20260507220027 68 133 0.0 3.0 0.00 0.00 0.00 64 1015.9
20260507215856 68 146 0.0 1.0 0.00 0.00 0.00 65 1015.4
20260507214834 69 325 0.0 1.0 0.00 0.00 0.00 64 1015.7
20260507214524 68 318 1.0 2.0 0.00 0.00 0.00 62 1016.3
20260507213816 69 331 0.0 1.0 0.00 0.00 0.00 63 1015.4
20260507213028 69 282 0.0 2.0 0.00 0.00 0.00 64 1016.1
20260507212800 70 281 0.0 1.0 0.00 0.00 0.00 64 1015.5
20260507211800 69 278 0.0 1.0 0.00 0.00 0.00 63 1016.0
20260507211522 69 137 1.0 2.0 0.00 0.00 0.00 62 1016.7
20260507210753 70 314 0.0 2.0 0.00 0.00 0.00 63 1016.0
20260507210018 69 325 0.0 5.0 0.00 0.00 0.00 64 1016.3
20260507204537 69 157 0.0 6.0 0.00 0.00 0.00 64 1015.4
20260507204517 69 163 1.0 8.0 0.00 0.00 0.00 64 1016.0
20260507203558 71 314 0.0 4.0 0.00 0.00 0.00 64 1015.5
20260507203014 70 309 0.0 4.0 0.00 0.00 0.00 65 1016.2
20260507202612 70 291 0.0 4.0 0.00 0.00 0.00 66 1015.6
20260507201538 71 208 0.0 2.0 0.00 0.00 0.00 66 1015.1
20260507201516 70 297 1.0 3.0 0.00 0.00 0.00 66 1015.8
20260507200527 69 272 0.0 2.0 0.00 0.00 0.00 68 1015.8
20260507200009 68 307 1.0 3.0 0.00 0.00 0.00 70 1016.1
20260507194511 67 337 0.0 3.0 0.00 0.00 0.00 73 1016.3
20260507194414 68 88 0.0 0.0 0.00 0.00 0.00 73 1015.6
20260507193410 68 344 0.0 3.0 0.00 0.00 0.00 74 1016.2
20260507193030 67 331 1.0 4.0 0.00 0.00 0.00 74 1016.8
20260507192350 66 290 0.0 1.0 0.00 0.00 0.00 79 1016.2
20260507191522 65 296 0.0 3.0 0.00 0.00 0.00 78 1016.5
20260507191344 66 295 0.0 4.0 0.00 0.00 0.00 78 1015.9
20260507190020 64 118 1.0 6.0 0.00 0.00 0.00 82 1016.4
20260507185133 64 290 0.0 1.0 0.00 0.00 0.00 86 1015.9
20260507184526 63 125 1.0 3.0 0.00 0.00 0.00 85 1016.6
20260507183055 62 54 0.0 2.0 0.00 0.00 0.00 86 1016.7
20260507183030 61 155 0.0 3.0 0.00 0.00 0.00 85 1017.4
20260507182026 62 282 0.0 2.0 0.00 0.00 0.00 85 1017.2
20260507181515 62 199 0.0 2.0 0.00 0.00 0.00 81 1017.8
20260507181041 63 343 0.0 1.0 0.00 0.00 0.00 78 1017.4
20260507180039 64 309 0.0 1.0 0.00 0.00 0.00 78 1017.5
20260507175012 64 298 0.0 1.0 0.00 0.00 0.00 76 1017.4
20260507174532 64 297 0.0 4.0 0.00 0.00 0.00 77 1018.0
20260507174032 65 248 0.0 4.0 0.00 0.00 0.00 77 1017.3
20260507173027 65 309 0.0 4.0 0.00 0.00 0.00 77 1017.2
20260507172007 65 352 0.0 3.0 0.00 0.00 0.00 77 1017.2
20260507171525 64 182 1.0 3.0 0.00 0.00 0.00 77 1017.7
20260507171022 64 27 0.0 3.0 0.00 0.00 0.00 79 1017.2
20260507170044 63 281 0.0 3.0 0.00 0.00 0.00 80 1017.3
20260507170023 62 307 0.0 4.0 0.00 0.00 0.00 80 1018.1
20260507165107 62 326 0.0 3.0 0.00 0.00 0.00 82 1017.4
20260507164520 61 216 1.0 2.0 0.00 0.00 0.00 82 1018.2
20260507164037 61 305 0.0 2.0 0.00 0.00 0.00 83 1017.6
20260507163057 60 245 0.0 0.0 0.00 0.00 0.00 83 1017.9
20260507163018 60 313 0.0 3.0 0.00 0.00 0.00 83 1018.6
20260507162120 60 321 0.0 4.0 0.00 0.00 0.00 84 1017.6
20260507161533 59 290 1.0 3.0 0.00 0.00 0.00 83 1018.4
20260507161126 60 312 0.0 4.0 0.00 0.00 0.00 84 1017.7
20260507160118 60 306 0.0 2.0 0.00 0.00 0.00 84 1017.5
20260507160016 59 360 1.0 4.0 0.00 0.00 0.00 84 1018.3
20260507155103 59 328 0.0 3.0 0.00 0.00 0.00 84 1017.6
20260507154512 59 310 1.0 4.0 0.00 0.00 0.00 84 1018.3
20260507154112 59 296 0.0 3.0 0.00 0.00 0.00 85 1017.5